This demonstration page uses our WeatherBlox Daily Observations layout. Learn more.

Left ArrowRight Arrow

39.12711, -84.51439

Hourly Observations for September 5, 2021

Temp ( °F °C ) Dew Point ( °F °C ) Humidity (%) Winds ( mph kmh ) Pressure ( in mb ) Visibility ( mi km ) Precip ( " mm )
12:53 am 00:53 Cloudy with Rain 69 20.6 67 19.4 93 93 W 8 13 29.89 1012 3 5 0.08 2.03
1:53 am 01:53 Cloudy with Light Rain 69 20.6 67 19.4 93 93 SW 6 9 29.88 1012 6 10 0.03 0.76
2:18 am 02:18 Cloudy with Heavy Rain 69 20.6 67 19.4 93 93 WSW 12 19 29.88 1012 2 3 0.08 2.03
2:36 am 02:36 Cloudy with Heavy Rain 69 20.6 67 19.4 93 93 WSW 10 17 29.88 1012 3 5 0.17 4.32
2:49 am 02:49 Cloudy with Heavy Rain 70 21 66 19 88 88 SW 12 19 29.88 1012 3 4 0.23 5.84
2:53 am 02:53 Cloudy with Heavy Rain 69 20.6 67 19.4 93 93 SW 9 15 29.87 1012 3 4 0.25 6.35
3:01 am 03:01 Cloudy with Rain 68 20 66 18.9 93 93 SW 14 22 29.87 1011 3 5 0.03 0.76
3:09 am 03:09 Cloudy with Light Rain 68 20 66 18.9 93 93 SW 10 17 29.87 1011 5 8 0.03 0.76
3:53 am 03:53 Cloudy with Light Rain 68 20 66 18.9 93 93 SSW 9 15 29.85 1011 9 14 0.05 1.27
4:17 am 04:17 Cloudy 69 20.6 66 18.9 90 90 SSW 10 17 29.85 1011 10 16 0.00 0.00
4:53 am 04:53 Cloudy 69 20.6 67 19.4 93 93 SSW 7 11 29.84 1010 9 14 0.00 0.00
5:08 am 05:08 Cloudy with Light Rain 69 20.6 67 19.4 93 93 SSW 8 13 29.84 1010 7 11 0.00 0.00
5:39 am 05:39 Cloudy 69 20.6 67 19.4 93 93 SSW 5 7 29.84 1010 8 13 0.00 0.00
5:53 am 05:53 Cloudy with Light Rain 69 20.6 67 19.4 93 93 SSW 6 9 29.83 1010 10 16 0.00 0.00
6:09 am 06:09 Cloudy with Light Rain 69 20.6 67 19.4 93 93 SSW 10 17 29.84 1010 5 8 0.00 0.00
6:31 am 06:31 Cloudy with Light Rain 68 20 67 19.4 96 96 SSW 6 9 29.84 1010 3 5 0.01 0.25
6:53 am 06:53 Cloudy with Light Rain 68 20 67 19.4 96 96 SSW 5 7 29.84 1011 5 8 0.01 0.25
7:53 am 07:53 Cloudy with Mist and Fog 68 20 67 19.4 96 96 SSW 6 9 29.85 1011 4 6 0.00 0.00
8:53 am 08:53 Cloudy with Light Rain 69 20.6 67 19.4 93 93 Calm 29.86 1011 4 6 0.02 0.51
9:53 am 09:53 Cloudy with Mist and Fog 71 21.7 69 20.6 94 94 Calm 29.87 1012 4 6 0.01 0.25
10:25 am 10:25 Mostly Cloudy with Mist and Fog 73 22.8 69 20.6 87 87 Calm 29.87 1012 5 8 0.00 0.00
10:53 am 10:53 Cloudy 74 23.3 68 20 82 82 N 6 9 29.88 1012 10 16 0.00 0.00
11:53 am 11:53 Cloudy 76 24.4 68 20 77 77 N 5 7 29.89 1012 10 16 0.00 0.00
12:53 pm 12:53 Mostly Cloudy 78 25.6 67 19.4 69 69 WNW 5 7 29.88 1012 10 16 0.00 0.00
1:53 pm 13:53 Mostly Cloudy 79 26.1 65 18.3 62 62 NNW 14 22 29.87 1012 10 16 0.00 0.00
2:53 pm 14:53 Mostly Cloudy 80 26.7 65 18.3 60 60 NNW 9 15 29.86 1011 10 16 0.00 0.00
3:00 pm 15:00 Partly Cloudy 79 26.1 64 17.8 60 60 NNW 7 11 29.85 1011 10 16 0.00 0.00
3:53 pm 15:53 Partly Cloudy 82 27.8 64 17.8 55 55 undefined N/A 29.85 1011 10 16 0.00 0.00
4:53 pm 16:53 Partly Cloudy 80 26.7 61 16.1 52 52 NW 8 13 29.85 1011 10 16 0.00 0.00
5:53 pm 17:53 Mostly Sunny 80 26.7 58 14.4 47 47 VRB 7 11 29.86 1011 10 16 0.00 0.00
6:53 pm 18:53 Sunny 78 25.6 56 13.3 47 47 NW 8 13 29.87 1012 10 16 0.00 0.00
7:53 pm 19:53 Sunny 75 23.9 55 12.8 50 50 NW 6 9 29.88 1012 10 16 0.00 0.00
8:53 pm 20:53 Clear 65 18.3 60 15.6 84 84 Calm 29.90 1013 10 16 0.00 0.00
9:53 pm 21:53 Clear 62 16.7 60 15.6 93 93 Calm 29.92 1013 10 16 0.00 0.00
10:53 pm 22:53 Clear 61 16.1 59 15 93 93 Calm 29.93 1014 10 16 0.00 0.00
11:53 pm 23:53 Clear 60 15.6 59 15 96 96 Calm 29.95 1014 10 16 0.00 0.00

Powered by AerisWeather